Location: Sagn�
(15.2046°N, 12.7898°W)
Time: 13:39:14
(UTC+00:00)

IRIDIUM 104 - Pass Details

Date: 08 May 2021
Orbit: 776 x 779 km, 86.4° (Epoch: 14 June)

Event Time Altitude Azimuth Distance (km) Brightness Sun altitude
Rises 19:21:11 0° 174° (S) 3,249 7.3 -3.2°
Reaches altitude 10° 19:23:32 10° 171° (S) 2,322 6.5 -3.8°
Maximum altitude 19:28:42 67° 89° (E) 841 4.3 -4.9°
Drops below altitude 10° 19:33:51 10° 7° (N) 2,326 7.0 -6.1°
Sets 19:36:13 0° 5° (N) 3,254 7.8 -6.6°
